Previsão horária em Almazne

Hoje, 25 Junho, Sexta-feira

Tempo Temperatura Precipitação Vento Pressão Humidade
00:00 +23°C° 0 mm 1 m/s 757 mmHg 84%
01:00 +23°C° 0 mm 1 m/s 757 mmHg 84%
02:00 +23°C° 0 mm 1 m/s 757 mmHg 84%
03:00 +23°C° 0 mm 1 m/s 757 mmHg 84%
04:00 +23°C° 0 mm 1 m/s 757 mmHg 84%
05:00 +23°C° 0 mm 1 m/s 757 mmHg 84%
06:00 +25°C° 0 mm 1 m/s 757 mmHg 78%
07:00 +26°C° 0 mm 1 m/s 757 mmHg 72%
08:00 +28°C° 0 mm 1 m/s 757 mmHg 65%
09:00 +29°C° 0.1 mm 1 m/s 756 mmHg 61%
10:00 +30°C° 0.1 mm 1 m/s 756 mmHg 56%
11:00 +32°C° 0.1 mm 1 m/s 756 mmHg 52%
12:00 +32°C° 0.1 mm 1 m/s 756 mmHg 51%
13:00 +32°C° 0.1 mm 2 m/s 756 mmHg 51%
14:00 +32°C° 0.1 mm 2 m/s 756 mmHg 50%
15:00 +33°C° 0.3 mm 3 m/s 755 mmHg 54%
16:00 +32°C° 0.3 mm 4 m/s 755 mmHg 58%
17:00 +30°C° 0.3 mm 4 m/s 755 mmHg 63%
18:00 +28°C° 0.4 mm 4 m/s 755 mmHg 68%
19:00 +27°C° 0.4 mm 3 m/s 755 mmHg 74%
20:00 +25°C° 0.4 mm 2 m/s 755 mmHg 79%
21:00 +25°C° 0 mm 2 m/s 755 mmHg 81%
22:00 +24°C° 0 mm 3 m/s 756 mmHg 83%
23:00 +22°C° 0 mm 3 m/s 756 mmHg 85%

Amanhã, 26 Junho, Sábado

Tempo Temperatura Precipitação Vento Pressão Humidade
00:00 +23°C° 0 mm 2 m/s 756 mmHg 87%
01:00 +23°C° 0 mm 2 m/s 755 mmHg 88%
02:00 +21°C° 0 mm 2 m/s 755 mmHg 90%
03:00 +23°C° 0 mm 2 m/s 755 mmHg 89%
04:00 +23°C° 0 mm 1 m/s 755 mmHg 88%
05:00 +23°C° 0 mm 1 m/s 755 mmHg 86%
06:00 +25°C° 0 mm 1 m/s 755 mmHg 80%
07:00 +26°C° 0 mm 1 m/s 755 mmHg 74%
08:00 +26°C° 0 mm 0 m/s 755 mmHg 67%
09:00 +29°C° 0 mm 1 m/s 755 mmHg 62%
10:00 +30°C° 0 mm 1 m/s 755 mmHg 58%
11:00 +32°C° 0 mm 1 m/s 755 mmHg 53%
12:00 +32°C° 0.1 mm 2 m/s 755 mmHg 52%
13:00 +32°C° 0.1 mm 2 m/s 754 mmHg 50%
14:00 +34°C° 0.1 mm 3 m/s 754 mmHg 49%
15:00 +33°C° 0.3 mm 3 m/s 754 mmHg 52%
16:00 +31°C° 0.3 mm 3 m/s 754 mmHg 55%
17:00 +31°C° 0.3 mm 3 m/s 754 mmHg 58%
18:00 +29°C° 0.4 mm 3 m/s 754 mmHg 66%
19:00 +27°C° 0.4 mm 3 m/s 754 mmHg 73%
20:00 +25°C° 0.4 mm 3 m/s 754 mmHg 81%
21:00 +25°C° 0.2 mm 3 m/s 754 mmHg 84%
22:00 +24°C° 0.2 mm 3 m/s 754 mmHg 87%
23:00 +22°C° 0.2 mm 3 m/s 754 mmHg 90%

Depois de amanhã, 27 Junho, Domingo

Tempo Temperatura Precipitação Vento Pressão Humidade
00:00 +22°C° 0.3 mm 3 m/s 755 mmHg 90%
01:00 +22°C° 0.3 mm 3 m/s 755 mmHg 91%
02:00 +21°C° 0.3 mm 3 m/s 755 mmHg 91%
03:00 +22°C° 0.1 mm 3 m/s 755 mmHg 90%
04:00 +22°C° 0.1 mm 3 m/s 755 mmHg 89%
05:00 +23°C° 0.1 mm 2 m/s 755 mmHg 87%
06:00 +25°C° 0 mm 2 m/s 755 mmHg 79%
07:00 +27°C° 0 mm 2 m/s 755 mmHg 71%
08:00 +28°C° 0 mm 2 m/s 754 mmHg 63%
09:00 +30°C° 0 mm 2 m/s 754 mmHg 58%
10:00 +31°C° 0 mm 2 m/s 754 mmHg 53%
11:00 +32°C° 0 mm 2 m/s 754 mmHg 49%
12:00 +33°C° 0.1 mm 3 m/s 754 mmHg 50%
13:00 +33°C° 0.1 mm 4 m/s 754 mmHg 50%
14:00 +33°C° 0.1 mm 4 m/s 754 mmHg 51%
15:00 +33°C° 0 mm 4 m/s 754 mmHg 53%
16:00 +33°C° 0 mm 4 m/s 754 mmHg 55%
17:00 +32°C° 0 mm 4 m/s 754 mmHg 56%
18:00 +29°C° 0.4 mm 4 m/s 754 mmHg 64%
19:00 +27°C° 0.4 mm 5 m/s 754 mmHg 72%
20:00 +25°C° 0.4 mm 5 m/s 755 mmHg 80%
21:00 +25°C° 0.2 mm 5 m/s 755 mmHg 80%
22:00 +23°C° 0.2 mm 4 m/s 755 mmHg 80%
23:00 +23°C° 0.2 mm 4 m/s 755 mmHg 80%

28 Junho, Segunda-feira

Tempo Temperatura Precipitação Vento Pressão Humidade
00:00 +23°C° 0.1 mm 4 m/s 755 mmHg 81%
01:00 +23°C° 0.1 mm 4 m/s 755 mmHg 82%
02:00 +22°C° 0.1 mm 5 m/s 755 mmHg 83%
03:00 +22°C° 0 mm 4 m/s 755 mmHg 84%
04:00 +22°C° 0 mm 4 m/s 756 mmHg 86%
05:00 +22°C° 0 mm 3 m/s 756 mmHg 87%
06:00 +25°C° 0 mm 4 m/s 756 mmHg 80%
07:00 +27°C° 0 mm 4 m/s 756 mmHg 73%
08:00 +28°C° 0 mm 4 m/s 756 mmHg 66%
09:00 +29°C° 0 mm 4 m/s 756 mmHg 61%
10:00 +31°C° 0 mm 3 m/s 757 mmHg 55%
11:00 +33°C° 0 mm 3 m/s 757 mmHg 49%
12:00 +33°C° 0.1 mm 3 m/s 757 mmHg 47%
13:00 +33°C° 0.1 mm 4 m/s 756 mmHg 46%
14:00 +34°C° 0.1 mm 4 m/s 756 mmHg 44%
15:00 +31°C° 0.4 mm 3 m/s 756 mmHg 50%
16:00 +30°C° 0.4 mm 3 m/s 757 mmHg 56%
17:00 +29°C° 0.4 mm 2 m/s 757 mmHg 61%
18:00 +28°C° 0 mm 2 m/s 757 mmHg 65%
19:00 +27°C° 0 mm 2 m/s 757 mmHg 69%
20:00 +26°C° 0 mm 3 m/s 757 mmHg 73%
21:00 +25°C° 0 mm 3 m/s 757 mmHg 74%
22:00 +24°C° 0 mm 3 m/s 757 mmHg 75%
23:00 +24°C° 0 mm 3 m/s 757 mmHg 77%

29 Junho, Terça-feira

Tempo Temperatura Precipitação Vento Pressão Humidade
00:00 +22°C° 0 mm 3 m/s 757 mmHg 78%
01:00 +22°C° 0 mm 3 m/s 757 mmHg 79%
02:00 +22°C° 0 mm 3 m/s 757 mmHg 81%
03:00 +22°C° 0.2 mm 3 m/s 757 mmHg 82%
04:00 +23°C° 0.2 mm 2 m/s 757 mmHg 83%
05:00 +23°C° 0.2 mm 2 m/s 757 mmHg 84%
06:00 +24°C° 0.2 mm 2 m/s 757 mmHg 78%
07:00 +26°C° 0.2 mm 2 m/s 757 mmHg 72%
08:00 +27°C° 0.2 mm 2 m/s 758 mmHg 66%
09:00 +29°C° 0.3 mm 2 m/s 757 mmHg 61%
10:00 +30°C° 0.3 mm 2 m/s 757 mmHg 55%
11:00 +31°C° 0.3 mm 2 m/s 757 mmHg 49%
12:00 +30°C° 0.1 mm 3 m/s 757 mmHg 50%
13:00 +30°C° 0.1 mm 3 m/s 757 mmHg 51%
14:00 +30°C° 0.1 mm 3 m/s 757 mmHg 52%
15:00 +29°C° 0.1 mm 2 m/s 757 mmHg 53%
16:00 +29°C° 0.1 mm 2 m/s 757 mmHg 54%
17:00 +29°C° 0.1 mm 1 m/s 757 mmHg 54%
18:00 +28°C° 0 mm 1 m/s 757 mmHg 59%
19:00 +26°C° 0 mm 1 m/s 757 mmHg 64%
20:00 +25°C° 0 mm 1 m/s 757 mmHg 69%
21:00 +24°C° 0 mm 1 m/s 757 mmHg 71%
22:00 +24°C° 0 mm 2 m/s 757 mmHg 73%
23:00 +23°C° 0 mm 2 m/s 757 mmHg 74%

30 Junho, Quarta-feira

Tempo Temperatura Precipitação Vento Pressão Humidade
00:00 +23°C° 0 mm 2 m/s 757 mmHg 75%
01:00 +21°C° 0 mm 2 m/s 757 mmHg 75%
02:00 +21°C° 0 mm 2 m/s 757 mmHg 76%
03:00 +21°C° 0 mm 2 m/s 757 mmHg 76%
04:00 +21°C° 0 mm 2 m/s 757 mmHg 76%
05:00 +21°C° 0 mm 2 m/s 757 mmHg 76%
06:00 +24°C° 0 mm 2 m/s 757 mmHg 69%
07:00 +26°C° 0 mm 2 m/s 758 mmHg 62%
08:00 +28°C° 0 mm 2 m/s 758 mmHg 54%
09:00 +29°C° 0 mm 1 m/s 758 mmHg 50%
10:00 +30°C° 0 mm 1 m/s 757 mmHg 46%
11:00 +32°C° 0 mm 1 m/s 757 mmHg 41%
12:00 +32°C° 0 mm 2 m/s 757 mmHg 41%
13:00 +32°C° 0 mm 2 m/s 757 mmHg 40%
14:00 +32°C° 0 mm 2 m/s 757 mmHg 39%
15:00 +33°C° 0 mm 3 m/s 757 mmHg 42%
16:00 +33°C° 0 mm 3 m/s 757 mmHg 44%
17:00 +32°C° 0 mm 4 m/s 756 mmHg 47%
18:00 +29°C° 0 mm 4 m/s 757 mmHg 53%
19:00 +28°C° 0 mm 3 m/s 757 mmHg 59%
20:00 +26°C° 0 mm 3 m/s 757 mmHg 65%
21:00 +25°C° 0 mm 3 m/s 757 mmHg 66%
22:00 +25°C° 0 mm 3 m/s 757 mmHg 67%
23:00 +24°C° 0 mm 2 m/s 757 mmHg 68%
Mostrar mais